GW1539 Weather Reports


time (UTC)temp
C
wind
direction
speed
KPH
gust
KPH
rain 1hr
cm
rain 24hr
cm
rain mn
cm
humidity
%
barometer
mb
20260508220148 7 234 0.0 0.0 0.00 0.00 0.00 94 1017.2
20260508214621 7 234 0.0 0.0 0.00 0.00 0.00 93 1017.1
20260508213116 7 234 0.0 0.0 0.00 0.00 0.00 93 1017.1
20260508210127 8 234 0.0 0.0 0.00 0.00 0.00 92 1017.1
20260508203127 9 234 0.0 0.0 0.00 0.00 0.00 92 1016.9
20260508201618 9 234 0.0 0.0 0.00 0.00 0.00 91 1016.8
20260508194614 10 234 0.0 0.0 0.00 0.00 0.00 91 1016.6
20260508193115 10 234 0.0 0.0 0.00 0.00 0.00 91 1016.3
20260508190119 10 234 0.0 0.0 0.00 0.00 0.00 89 1016.3
20260508184619 11 234 0.0 0.0 0.00 0.00 0.00 89 1016.0
20260508181620 11 234 0.0 1.6 0.00 0.00 0.00 87 1015.7
20260508180111 11 234 0.0 1.6 0.00 0.00 0.00 87 1015.7
20260508174609 12 234 0.0 1.6 0.00 0.00 0.00 85 1015.5
20260508171614 13 234 0.0 6.4 0.00 0.00 0.00 79 1015.4
20260508164618 13 233 1.6 6.4 0.00 0.00 0.00 77 1015.5
20260508163118 14 273 3.2 9.7 0.00 0.00 0.00 75 1015.3
20260508160119 14 275 1.6 6.4 0.00 0.00 0.00 76 1015.2
20260508154615 14 232 1.6 8.0 0.00 0.00 0.00 76 1015.1
20260508151622 15 220 3.2 11.3 0.00 0.00 0.00 73 1015.0
20260508150121 15 239 4.8 11.3 0.00 0.00 0.00 72 1015.2
20260508144619 15 225 4.8 11.3 0.00 0.00 0.00 72 1015.3
20260508143108 15 237 4.8 19.3 0.00 0.00 0.00 72 1015.4
20260508140121 15 230 4.8 11.3 0.00 0.00 0.00 72 1015.5
20260508133122 15 196 6.4 14.5 0.00 0.08 0.00 69 1015.7
20260508131618 15 265 3.2 8.0 0.00 0.08 0.00 69 1015.8
20260508124616 15 355 0.0 4.8 0.00 0.89 0.00 69 1015.8
20260508121622 15 247 4.8 12.9 0.00 0.89 0.00 69 1016.0
20260508114619 15 279 4.8 14.5 0.00 0.97 0.00 72 1015.9
20260508113118 15 242 6.4 11.3 0.00 0.97 0.00 71 1016.0
20260508110118 13 281 4.8 16.1 0.00 0.97 0.00 73 1016.3
20260508104615 13 244 4.8 14.5 0.00 0.99 0.00 73 1016.4
20260508103114 13 220 0.0 12.9 0.00 0.99 0.00 73 1016.3
20260508100125 13 265 0.0 11.3 0.00 0.99 0.00 76 1016.5
20260508094619 13 231 4.8 17.7 0.00 0.99 0.00 73 1016.6
20260508091620 13 276 3.2 12.9 0.00 0.99 0.00 71 1016.7
20260508084623 11 240 3.2 8.0 0.00 0.99 0.00 80 1016.7
20260508083124 11 205 1.6 11.3 0.00 0.99 0.00 83 1016.8
20260508081615 11 229 3.2 6.4 0.00 0.99 0.00 86 1016.7
20260508074618 10 234 4.8 11.3 0.00 0.99 0.00 86 1016.5
20260508073111 10 215 3.2 8.0 0.00 0.99 0.00 84 1016.5
20260508070120 9 226 3.2 6.4 0.00 0.99 0.00 93 1016.3
20260508063123 8 226 0.0 1.6 0.00 0.99 0.00 96 1016.1
20260508061624 8 226 0.0 1.6 0.00 0.99 0.00 96 1015.8
20260508060118 7 226 0.0 0.0 0.00 0.99 0.00 96 1015.6
20260508053118 6 226 0.0 0.0 0.00 0.99 0.00 96 1015.8
20260508051612 5 226 0.0 0.0 0.00 0.99 0.00 96 1015.7
20260508044621 5 226 0.0 0.0 0.00 0.99 0.00 96 1015.7
20260508041623 5 226 0.0 0.0 0.00 0.99 0.00 95 1015.5
20260508034620 6 226 0.0 0.0 0.00 0.99 0.00 96 1015.7
20260508031621 7 226 0.0 0.0 0.00 0.99 0.00 96 1015.7
20260508030111 7 226 0.0 0.0 0.00 0.99 0.00 96 1015.9
20260508023107 7 226 0.0 0.0 0.00 0.99 0.00 96 1016.1
20260508020117 7 226 0.0 0.0 0.00 0.99 0.00 96 1016.1
20260508014628 7 226 0.0 0.0 0.00 0.99 0.00 96 1016.2
20260508011616 7 226 0.0 0.0 0.00 0.99 0.00 95 1016.0
20260508004610 7 226 0.0 0.0 0.00 0.99 0.00 95 1016.0
20260508003109 7 226 0.0 0.0 0.00 0.99 0.00 95 1016.0
20260508000117 7 226 0.0 0.0 0.00 0.99 0.00 95 1015.8
20260507234613 7 226 0.0 0.0 0.00 0.99 0.00 95 1016.0
20260507231622 7 226 0.0 0.0 0.00 0.99 0.00 95 1016.2
20260507230114 7 226 0.0 0.0 0.00 0.99 0.00 95 1016.3
20260507223115 7 226 0.0 3.2 0.00 0.99 0.00 95 1016.1